Flag for Germany Weather past 2 weeks in Kaufbeuren, Bavaria, Germany

Now
73 °F

Passing clouds.


Feels Like: 76 °F
Forecast: 61 / 89 °F
Wind: 2 mph from Southwest

Location: Altenstadt Airport

Current Time: Jul 2, 2015 at 10:50:29 AM

Latest Report: Jul 2, 2015 at 9:20 AM


Visibility: N/A

Pressure: 30.24 "Hg

Humidity: 69%

Dew point: 63 °F

Location of KaufbeurenLocation

Historic Weather in Kaufbeuren — Graph

°F

Kaufbeuren temperature yesterday

Maximum temperature yesterday: 82 °F (at 4:20 PM)
Minimum temperature yesterday: 55 °F (at 5:20 AM)
Average temperature yesterday: 70 °F

Past Weeks' High & Low Weather Summary

 TemperatureHumidityPressure
High82 °F (Jul 1, 4:20 PM)100% (Jun 17, 9:20 AM)30.27 "Hg (Jun 17, 9:20 AM)
Low43 °F (Jun 25, 5:20 AM)35% (Jul 1, 4:20 PM)29.77 "Hg (Jun 22, 10:20 PM)
Average58 °F77%30.13 "Hg
* Reported Jun 17 9:20 AM — Jul 2 9:20 AM, Kaufbeuren, Weather by CustomWeather, © 2015

Note: Actual official high and low records may vary slightly from our data, if they occured in-between our weather recording intervals... More about our weather records

Advertising

Kaufbeuren weather history for previous 24 hours

 ConditionsComfort  
Time TempWeatherWind HumidityBarometerVisibility
9:20 AM
Thu, Jul 2
73 °FPassing clouds.2 mph69%30.24 "HgN/A
8:20 AM68 °FPassing clouds.2 mph78%30.24 "HgN/A
7:20 AM63 °FPassing clouds.2 mph83%30.21 "HgN/A
6:20 AM59 °FPassing clouds.2 mph94%30.21 "HgN/A
5:20 AM59 °FPassing clouds.3 mph94%30.21 "HgN/A
4:20 AM59 °FCool.3 mph94%30.21 "HgN/A
3:20 AM61 °FCool.5 mph88%30.21 "HgN/A
2:20 AM63 °FMild.No wind83%30.21 "HgN/A
1:20 AM64 °FMild.1 mph78%30.21 "HgN/A
12:20 AM66 °FMild.2 mph73%30.21 "HgN/A
11:20 PM
Wed, Jul 1
68 °FMild.5 mph73%30.21 "HgN/A
10:20 PM70 °FMild.6 mph69%30.18 "HgN/A
9:20 PM72 °FMild.6 mph65%30.18 "HgN/A
8:20 PM75 °FPassing clouds.7 mph61%30.15 "HgN/A
7:20 PM81 °FPassing clouds.9 mph48%30.15 "HgN/A
6:20 PM82 °FPassing clouds.8 mph37%30.15 "HgN/A
5:20 PM82 °FPassing clouds.7 mph37%30.15 "HgN/A
4:20 PM82 °FPassing clouds.9 mph35%30.15 "HgN/A
3:20 PM81 °FPassing clouds.12 mph42%30.18 "HgN/A
2:20 PM81 °FPassing clouds.8 mph39%30.18 "HgN/A
1:20 PM79 °FPassing clouds.8 mph45%30.18 "HgN/A
12:20 PM77 °FPassing clouds.10 mph51%30.18 "HgN/A
11:20 AM75 °FMild.10 mph54%30.18 "HgN/A
10:20 AM73 °FMild.10 mph50%30.18 "HgN/A
Weather by CustomWeather, © 2015

See weather overviewHow to use our weather pages